WBANNO,USDM_WEEK,LONGITUDE,LATITUDE,SMVWC_5_CM_MEAN,SMANOM_5_CM_MEAN,SMPERC_5_CM_30COUNTS,SMPERC_5_CM_70COUNTS,SMVWC_10_CM_MEAN,SMANOM_10_CM_MEAN,SMPERC_10_CM_30COUNTS,SMPERC_10_CM_70COUNTS,SMVWC_20_CM_MEAN,SMANOM_20_CM_MEAN,SMPERC_20_CM_30COUNTS,SMPERC_20_CM_70COUNTS,SMVWC_50_CM_MEAN,SMANOM_50_CM_MEAN,SMPERC_50_CM_30COUNTS,SMPERC_50_CM_70COUNTS,SMVWC_100_CM_MEAN,SMANOM_100_CM_MEAN,SMPERC_100_CM_30COUNTS,SMPERC_100_CM_70COUNTS,SMVWC_TOP_CM_MEAN,SMANOM_TOP_CM_MEAN,SMPERC_TOP_CM_30COUNTS,SMPERC_TOP_CM_70COUNTS,SMVWC_COLUMN_CM_MEAN,SMANOM_COLUMN_CM_MEAN,SMPERC_COLUMN_CM_30COUNTS,SMPERC_COLUMN_CM_70COUNTS
94645,20100609,-67.88,46.96,,,,,,,,,,,,,,,,,,,,,,,,,,,,
94645,20100610,-67.88,46.96,,,,,,,,,,,,,,,,,,,,,,,,,,,,
94645,20100611,-67.88,46.96,,,,,,,,,,,,,,,,,,,,,,,,,,,,
94645,20100612,-67.88,46.96,,,,,,,,,,,,,,,,,,,,,,,,,,,,
94645,20100613,-67.88,46.96,,,,,,,,,,,,,,,,,,,,,,,,,,,,
94645,20100614,-67.88,46.96,,,,,,,,,,,,,,,,,,,,,,,,,,,,
94645,20100615,-67.88,46.96,0.143,-0.06,0,0,0.117,-0.55,0.887,0,0.107,-0.19,0.033,0,0.109,-0.56,1,0,0.135,-0.46,1,0,0.13,-0.33,0.32,0,0.122,-0.52,1,0
94645,20100616,-67.88,46.96,0.139,-0.1,0,0,0.114,-0.58,0.969,0,0.106,-0.19,0,0,0.109,-0.56,1,0,0.137,-0.45,1,0,0.127,-0.37,0.447,0,0.121,-0.52,1,0
94645,20100617,-67.88,46.96,0.134,-0.15,0.066,0,0.11,-0.61,1,0,0.104,-0.2,0,0,0.107,-0.57,1,0,0.136,-0.45,1,0,0.122,-0.41,0.578,0,0.118,-0.53,1,0
94645,20100618,-67.88,46.96,0.129,-0.22,0.175,0,0.106,-0.64,1,0,0.101,-0.21,0,0,0.104,-0.58,1,0,0.133,-0.47,1,0,0.117,-0.46,0.723,0,0.115,-0.55,1,0
94645,20100619,-67.88,46.96,0.124,-0.28,0.319,0,0.102,-0.68,1,0,0.098,-0.23,0,0,0.101,-0.6,1,0,0.128,-0.49,1,0,0.113,-0.52,0.867,0,0.111,-0.58,1,0
94645,20100620,-67.88,46.96,0.118,-0.35,0.464,0,0.097,-0.72,1,0,0.095,-0.25,0.03,0,0.098,-0.62,1,0,0.124,-0.51,1,0,0.108,-0.58,0.976,0,0.106,-0.6,1,0
94645,20100621,-67.88,46.96,0.12,-0.33,0.488,0,0.097,-0.72,1,0,0.1,-0.19,0.065,0.036,0.108,-0.57,0.917,0,0.129,-0.5,0.923,0,0.108,-0.57,0.911,0,0.111,-0.56,0.911,0
94645,20100622,-67.88,46.96,0.122,-0.31,0.488,0,0.097,-0.71,1,0,0.107,-0.13,0.065,0.036,0.125,-0.49,0.774,0,0.141,-0.46,0.804,0,0.109,-0.56,0.851,0,0.118,-0.51,0.768,0
94645,20100623,-67.88,46.96,0.122,-0.3,0.488,0,0.097,-0.7,1,0,0.112,-0.09,0.065,0.036,0.135,-0.44,0.732,0,0.153,-0.43,0.75,0,0.11,-0.56,0.851,0,0.124,-0.47,0.696,0
94645,20100624,-67.88,46.96,0.126,-0.27,0.464,0,0.099,-0.68,1,0,0.116,-0.05,0.065,0.036,0.139,-0.43,0.732,0,0.158,-0.42,0.75,0,0.112,-0.53,0.774,0,0.128,-0.44,0.696,0
94645,20100625,-67.88,46.96,0.15,0.03,0.357,0.137,0.119,-0.45,0.857,0.131,0.159,0.3,0.065,0.167,0.182,-0.21,0.601,0.125,0.202,-0.26,0.625,0.006,0.135,-0.24,0.631,0.137,0.162,-0.2,0.56,0.125
94645,20100626,-67.88,46.96,0.16,0.16,0.214,0.185,0.129,-0.33,0.72,0.161,0.199,0.63,0.065,0.31,0.23,0.04,0.458,0.268,0.252,-0.08,0.482,0.101,0.145,-0.11,0.488,0.173,0.194,0.02,0.417,0.268
94645,20100627,-67.88,46.96,0.169,0.26,0.071,0.185,0.134,-0.26,0.649,0.161,0.234,0.93,0.036,0.452,0.279,0.3,0.315,0.411,0.302,0.11,0.339,0.238,0.152,-0.02,0.345,0.173,0.224,0.23,0.274,0.411
94645,20100628,-67.88,46.96,0.169,0.27,0.042,0.185,0.136,-0.24,0.649,0.161,0.25,1.07,0,0.56,0.308,0.45,0.256,0.554,0.344,0.28,0.274,0.381,0.152,0,0.292,0.173,0.241,0.36,0.22,0.554
94645,20100629,-67.88,46.96,0.171,0.31,0.042,0.185,0.137,-0.21,0.601,0.161,0.258,1.15,0,0.702,0.328,0.56,0.256,0.696,0.375,0.41,0.25,0.452,0.154,0.03,0.208,0.173,0.254,0.45,0.22,0.583
94645,20100630,-67.88,46.96,0.184,0.47,0.042,0.244,0.148,-0.09,0.458,0.22,0.279,1.34,0,0.845,0.356,0.72,0.155,0.839,0.404,0.54,0.161,0.506,0.166,0.19,0.065,0.232,0.274,0.61,0.149,0.643
94645,20100701,-67.88,46.96,0.2,0.68,0,0.387,0.166,0.12,0.315,0.363,0.313,1.65,0,0.988,0.395,0.94,0.012,0.982,0.447,0.73,0.018,0.649,0.183,0.42,0,0.375,0.304,0.84,0.006,0.786
94645,20100702,-67.88,46.96,0.19,0.57,0,0.393,0.163,0.1,0.315,0.363,0.307,1.64,0,1,0.395,0.97,0,1,0.453,0.78,0,0.786,0.177,0.34,0,0.381,0.302,0.85,0,0.804
94645,20100703,-67.88,46.96,0.189,0.56,0,0.411,0.16,0.08,0.31,0.333,0.304,1.63,0,1,0.389,0.95,0,1,0.453,0.8,0,0.833,0.175,0.32,0,0.351,0.299,0.85,0,0.804
94645,20100704,-67.88,46.96,0.188,0.56,0,0.411,0.16,0.08,0.238,0.333,0.294,1.56,0,1,0.379,0.93,0,1,0.454,0.82,0,0.839,0.174,0.33,0,0.351,0.295,0.85,0,0.804
94645,20100705,-67.88,46.96,0.189,0.57,0,0.411,0.161,0.09,0.161,0.333,0.288,1.52,0,1,0.377,0.93,0,1,0.45,0.83,0,0.821,0.175,0.34,0,0.351,0.293,0.85,0,0.786
94645,20100706,-67.88,46.96,0.187,0.56,0,0.411,0.16,0.09,0.202,0.333,0.284,1.49,0,1,0.376,0.95,0,1,0.442,0.81,0,0.75,0.174,0.34,0,0.351,0.29,0.84,0,0.756
94645,20100707,-67.88,46.96,0.176,0.43,0,0.351,0.151,-0.01,0.345,0.274,0.27,1.36,0,0.935,0.364,0.9,0,0.881,0.433,0.79,0,0.696,0.163,0.22,0,0.292,0.279,0.77,0,0.696
94645,20100708,-67.88,46.96,0.157,0.2,0,0.208,0.132,-0.21,0.488,0.131,0.242,1.1,0,0.792,0.343,0.79,0,0.738,0.409,0.69,0,0.554,0.145,-0.01,0.083,0.149,0.257,0.62,0,0.554
94645,20100709,-67.88,46.96,0.147,0.08,0,0.065,0.117,-0.37,0.583,0,0.222,0.9,0,0.75,0.327,0.7,0,0.595,0.399,0.65,0,0.506,0.132,-0.17,0.125,0.006,0.242,0.51,0,0.423
94645,20100710,-67.88,46.96,0.142,0.03,0,0,0.114,-0.41,0.726,0,0.201,0.7,0,0.679,0.316,0.64,0,0.452,0.393,0.63,0,0.452,0.128,-0.21,0.125,0,0.233,0.44,0,0.28
94645,20100711,-67.88,46.96,0.143,0.03,0,0.006,0.115,-0.4,0.744,0,0.197,0.65,0,0.673,0.306,0.57,0,0.31,0.374,0.55,0,0.31,0.129,-0.2,0.125,0,0.227,0.38,0,0.137
94645,20100712,-67.88,46.96,0.142,0.02,0,0.006,0.115,-0.4,0.792,0,0.196,0.63,0,0.673,0.295,0.51,0,0.167,0.353,0.46,0,0.185,0.128,-0.21,0.125,0,0.22,0.33,0,0.012
94645,20100713,-67.88,46.96,0.141,0,0,0.006,0.114,-0.41,0.798,0,0.194,0.61,0,0.577,0.284,0.44,0,0.024,0.341,0.41,0,0.185,0.128,-0.23,0.19,0,0.215,0.28,0,0.012
94645,20100714,-67.88,46.96,0.151,0.1,0,0.077,0.123,-0.31,0.72,0.071,0.208,0.73,0,0.571,0.286,0.44,0,0.065,0.342,0.41,0,0.244,0.137,-0.12,0.256,0.071,0.222,0.32,0,0.083
94645,20100715,-67.88,46.96,0.167,0.29,0,0.22,0.138,-0.15,0.577,0.173,0.235,0.98,0,0.714,0.3,0.52,0,0.208,0.366,0.49,0,0.387,0.153,0.07,0.173,0.179,0.241,0.45,0,0.226
94645,20100716,-67.88,46.96,0.17,0.33,0,0.238,0.141,-0.12,0.5,0.179,0.253,1.16,0,0.756,0.309,0.58,0,0.351,0.375,0.52,0,0.435,0.156,0.1,0.131,0.185,0.25,0.51,0,0.357
94645,20100717,-67.88,46.96,0.178,0.43,0,0.375,0.15,-0.02,0.357,0.238,0.273,1.4,0,0.827,0.316,0.62,0,0.494,0.38,0.55,0,0.488,0.164,0.21,0.131,0.256,0.26,0.59,0,0.5
94645,20100718,-67.88,46.96,0.181,0.49,0,0.47,0.154,0.02,0.339,0.25,0.288,1.61,0,0.833,0.325,0.68,0,0.637,0.399,0.62,0,0.631,0.167,0.26,0.131,0.333,0.269,0.68,0,0.643
94645,20100719,-67.88,46.96,0.184,0.54,0,0.571,0.156,0.05,0.226,0.25,0.305,1.83,0,0.833,0.333,0.74,0,0.78,0.422,0.72,0,0.774,0.17,0.3,0.131,0.333,0.28,0.77,0,0.786
94645,20100720,-67.88,46.96,0.19,0.63,0,0.661,0.163,0.13,0.083,0.292,0.32,2.02,0,0.929,0.34,0.79,0,0.923,0.447,0.82,0,0.917,0.176,0.4,0.065,0.405,0.292,0.88,0,0.929
94645,20100721,-67.88,46.96,0.184,0.59,0,0.732,0.157,0.08,0.018,0.22,0.326,2.15,0,1,0.346,0.84,0,1,0.461,0.89,0,1,0.171,0.34,0,0.351,0.295,0.93,0,1
94645,20100722,-67.88,46.96,0.176,0.51,0,0.655,0.147,-0.02,0.018,0.149,0.31,2.06,0,1,0.344,0.84,0,1,0.461,0.9,0,1,0.161,0.24,0,0.274,0.288,0.89,0,1
94645,20100723,-67.88,46.96,0.184,0.63,0,0.78,0.157,0.1,0,0.238,0.311,2.14,0,1,0.345,0.85,0,1,0.461,0.91,0,1,0.17,0.36,0,0.387,0.292,0.94,0,1
94645,20100724,-67.88,46.96,0.179,0.59,0,0.708,0.15,0.03,0,0.179,0.309,2.18,0,1,0.344,0.85,0,1,0.46,0.92,0,1,0.165,0.29,0,0.315,0.288,0.94,0,1
94645,20100725,-67.88,46.96,0.175,0.55,0,0.625,0.147,-0.01,0,0.185,0.295,2.05,0,1,0.341,0.83,0,1,0.46,0.93,0,1,0.161,0.25,0,0.256,0.284,0.91,0,1
94645,20100726,-67.88,46.96,0.187,0.69,0,0.667,0.161,0.14,0,0.327,0.301,2.15,0,1,0.342,0.84,0,1,0.459,0.94,0,1,0.174,0.4,0,0.399,0.29,0.96,0,1
94645,20100727,-67.88,46.96,0.186,0.68,0,0.696,0.159,0.11,0,0.298,0.311,2.29,0,1,0.346,0.85,0,1,0.459,0.94,0,1,0.172,0.37,0,0.363,0.292,0.98,0,1
94645,20100728,-67.88,46.96,0.184,0.65,0,0.56,0.157,0.08,0.012,0.298,0.303,2.22,0,1,0.344,0.84,0,1,0.459,0.95,0,1,0.17,0.34,0,0.345,0.289,0.95,0,1
94645,20100729,-67.88,46.96,0.179,0.59,0,0.494,0.153,0.02,0.125,0.268,0.295,2.13,0,1,0.342,0.83,0,1,0.458,0.95,0,1,0.166,0.27,0,0.315,0.285,0.92,0,0.988
94645,20100730,-67.88,46.96,0.167,0.42,0,0.351,0.14,-0.14,0.268,0.173,0.27,1.86,0,1,0.331,0.76,0,0.905,0.445,0.91,0,0.875,0.154,0.1,0,0.196,0.271,0.81,0,0.845
94645,20100731,-67.88,46.96,0.162,0.34,0,0.286,0.137,-0.19,0.411,0.173,0.246,1.58,0,1,0.314,0.66,0,0.762,0.424,0.84,0,0.732,0.149,0.03,0.06,0.196,0.257,0.71,0,0.702
94645,20100801,-67.88,46.96,0.156,0.26,0,0.268,0.133,-0.26,0.554,0.155,0.234,1.43,0,0.952,0.294,0.55,0,0.619,0.393,0.72,0,0.589,0.144,-0.05,0.202,0.179,0.242,0.59,0,0.56
94645,20100802,-67.88,46.96,0.136,0.01,0.083,0.125,0.114,-0.48,0.696,0.012,0.202,1.05,0,0.821,0.268,0.41,0,0.476,0.357,0.58,0.006,0.446,0.125,-0.3,0.345,0.036,0.215,0.39,0,0.417
94645,20100803,-67.88,46.96,0.126,-0.14,0.22,0.006,0.107,-0.58,0.839,0,0.173,0.69,0,0.679,0.24,0.27,0.071,0.333,0.318,0.43,0.006,0.304,0.116,-0.42,0.488,0,0.193,0.22,0.048,0.274
94645,20100804,-67.88,46.96,0.123,-0.18,0.22,0,0.104,-0.63,0.97,0,0.157,0.49,0,0.571,0.215,0.13,0.214,0.19,0.278,0.28,0.048,0.161,0.114,-0.47,0.625,0,0.175,0.08,0.048,0.131
94645,20100805,-67.88,46.96,0.121,-0.21,0.22,0,0.102,-0.66,1,0,0.15,0.4,0,0.429,0.19,0,0.357,0.048,0.24,0.13,0.077,0.018,0.112,-0.51,0.768,0,0.161,-0.03,0.048,0
94645,20100806,-67.88,46.96,0.119,-0.25,0.262,0,0.1,-0.69,1,0,0.145,0.34,0,0.286,0.172,-0.1,0.5,0,0.213,0.03,0.101,0,0.109,-0.55,0.911,0,0.15,-0.12,0.155,0
94645,20100807,-67.88,46.96,0.116,-0.29,0.405,0,0.098,-0.72,1,0,0.141,0.29,0,0.143,0.16,-0.16,0.643,0,0.193,-0.05,0.167,0,0.107,-0.59,0.994,0,0.142,-0.18,0.298,0
94645,20100808,-67.88,46.96,0.114,-0.32,0.548,0,0.097,-0.75,1,0,0.137,0.25,0,0.048,0.153,-0.2,0.786,0,0.183,-0.09,0.274,0,0.105,-0.62,0.994,0,0.137,-0.22,0.44,0
94645,20100809,-67.88,46.96,0.112,-0.34,0.607,0,0.095,-0.78,1,0,0.134,0.21,0,0.036,0.148,-0.22,0.929,0,0.177,-0.1,0.405,0,0.104,-0.64,0.994,0,0.133,-0.25,0.583,0
94645,20100810,-67.88,46.96,0.111,-0.35,0.613,0,0.095,-0.79,1,0,0.131,0.19,0,0.036,0.144,-0.24,1,0,0.173,-0.11,0.524,0,0.103,-0.66,0.994,0,0.131,-0.26,0.679,0
94645,20100811,-67.88,46.96,0.106,-0.42,0.756,0,0.092,-0.83,1,0,0.127,0.14,0,0,0.141,-0.25,1,0,0.17,-0.11,0.577,0,0.099,-0.71,1,0,0.127,-0.29,0.821,0
94645,20100812,-67.88,46.96,0.101,-0.48,0.899,0,0.09,-0.86,1,0,0.123,0.1,0,0,0.138,-0.26,1,0,0.166,-0.12,0.69,0,0.095,-0.76,1,0,0.124,-0.31,0.964,0
94645,20100813,-67.88,46.96,0.097,-0.52,1,0,0.087,-0.9,1,0,0.119,0.06,0,0,0.135,-0.28,1,0,0.162,-0.13,0.81,0,0.092,-0.8,1,0,0.12,-0.34,1,0
94645,20100814,-67.88,46.96,0.094,-0.56,1,0,0.085,-0.93,1,0,0.115,0.01,0,0,0.132,-0.29,1,0,0.158,-0.13,0.887,0,0.089,-0.84,1,0,0.117,-0.36,1,0
94645,20100815,-67.88,46.96,0.09,-0.6,1,0,0.082,-0.95,1,0,0.111,-0.04,0,0,0.129,-0.31,1,0,0.155,-0.14,0.923,0,0.086,-0.88,1,0,0.114,-0.38,1,0
94645,20100816,-67.88,46.96,0.087,-0.64,1,0,0.08,-0.98,1,0,0.107,-0.09,0,0,0.126,-0.32,1,0,0.151,-0.15,0.929,0,0.084,-0.92,1,0,0.11,-0.4,1,0
94645,20100817,-67.88,46.96,0.084,-0.69,1,0,0.077,-1.01,1,0,0.103,-0.14,0,0,0.123,-0.34,1,0,0.146,-0.16,0.952,0,0.081,-0.96,1,0,0.107,-0.42,1,0
94645,20100818,-67.88,46.96,0.081,-0.73,1,0,0.075,-1.03,1,0,0.1,-0.18,0,0,0.12,-0.36,1,0,0.142,-0.18,1,0,0.078,-1,1,0,0.103,-0.45,1,0
94645,20100819,-67.88,46.96,0.078,-0.77,1,0,0.072,-1.06,1,0,0.096,-0.23,0,0,0.117,-0.37,1,0,0.138,-0.19,1,0,0.075,-1.04,1,0,0.1,-0.47,1,0
94645,20100820,-67.88,46.96,0.076,-0.81,1,0,0.07,-1.08,1,0,0.093,-0.27,0.071,0,0.115,-0.39,1,0,0.134,-0.21,1,0,0.073,-1.07,1,0,0.098,-0.49,1,0
94645,20100821,-67.88,46.96,0.073,-0.85,1,0,0.069,-1.1,1,0,0.09,-0.31,0.202,0,0.112,-0.4,1,0,0.13,-0.22,1,0,0.071,-1.1,1,0,0.095,-0.52,1,0
94645,20100822,-67.88,46.96,0.072,-0.88,1,0,0.067,-1.13,1,0,0.088,-0.34,0.345,0,0.11,-0.42,1,0,0.126,-0.23,1,0,0.069,-1.13,1,0,0.093,-0.54,1,0
94645,20100823,-67.88,46.96,0.07,-0.91,1,0,0.066,-1.16,1,0,0.086,-0.37,0.488,0,0.108,-0.43,1,0,0.123,-0.24,1,0,0.068,-1.16,1,0,0.091,-0.56,1,0
94645,20100824,-67.88,46.96,0.069,-0.94,1,0,0.064,-1.19,1,0,0.084,-0.4,0.631,0,0.106,-0.44,1,0,0.121,-0.25,1,0,0.066,-1.18,1,0,0.089,-0.57,1,0
94645,20100825,-67.88,46.96,0.067,-0.97,1,0,0.063,-1.23,1,0,0.081,-0.43,0.774,0,0.105,-0.45,1,0,0.119,-0.26,1,0,0.065,-1.21,1,0,0.087,-0.59,1,0
94645,20100826,-67.88,46.96,0.077,-0.85,0.929,0.065,0.072,-1.14,0.929,0.065,0.095,-0.25,0.845,0.071,0.12,-0.36,0.929,0.065,0.136,-0.2,0.929,0.03,0.074,-1.09,0.929,0.065,0.1,-0.49,0.929,0.065
94645,20100827,-67.88,46.96,0.092,-0.65,0.786,0.131,0.086,-0.97,0.804,0.119,0.123,0.13,0.774,0.214,0.164,-0.12,0.786,0.208,0.184,-0.02,0.786,0.173,0.089,-0.9,0.786,0.119,0.13,-0.27,0.786,0.208
94645,20100828,-67.88,46.96,0.103,-0.52,0.643,0.131,0.094,-0.89,0.804,0.119,0.145,0.41,0.643,0.357,0.207,0.12,0.643,0.351,0.232,0.15,0.643,0.315,0.099,-0.78,0.655,0.119,0.156,-0.07,0.643,0.351
94645,20100829,-67.88,46.96,0.112,-0.41,0.5,0.131,0.102,-0.81,0.804,0.119,0.158,0.58,0.5,0.5,0.242,0.31,0.5,0.494,0.281,0.32,0.5,0.458,0.107,-0.67,0.649,0.119,0.179,0.1,0.5,0.405
94645,20100830,-67.88,46.96,0.12,-0.31,0.399,0.131,0.109,-0.74,0.804,0.119,0.168,0.7,0.357,0.565,0.274,0.49,0.357,0.595,0.324,0.47,0.357,0.53,0.114,-0.59,0.649,0.119,0.199,0.25,0.357,0.405
94645,20100831,-67.88,46.96,0.127,-0.23,0.393,0.131,0.114,-0.68,0.804,0.119,0.176,0.81,0.214,0.565,0.289,0.56,0.214,0.595,0.353,0.57,0.214,0.53,0.121,-0.52,0.649,0.119,0.212,0.33,0.214,0.405
94645,20100901,-67.88,46.96,0.133,-0.17,0.393,0.131,0.119,-0.63,0.804,0.119,0.184,0.9,0.071,0.565,0.299,0.6,0.185,0.595,0.369,0.61,0.071,0.53,0.126,-0.46,0.649,0.119,0.221,0.39,0.149,0.405
94645,20100902,-67.88,46.96,0.126,-0.27,0.464,0.065,0.114,-0.71,0.875,0.054,0.176,0.78,0,0.494,0.288,0.53,0.256,0.53,0.359,0.55,0.143,0.5,0.12,-0.56,0.72,0.054,0.212,0.31,0.22,0.339
94645,20100903,-67.88,46.96,0.113,-0.44,0.607,0,0.102,-0.87,1,0,0.152,0.45,0,0.351,0.249,0.29,0.399,0.387,0.316,0.37,0.286,0.357,0.107,-0.73,0.863,0,0.186,0.1,0.363,0.196
94645,20100904,-67.88,46.96,0.109,-0.51,0.726,0.018,0.098,-0.92,0.982,0.012,0.138,0.26,0,0.232,0.213,0.08,0.518,0.244,0.276,0.21,0.405,0.214,0.103,-0.79,0.976,0.018,0.167,-0.07,0.482,0.071
94645,20100905,-67.88,46.96,0.128,-0.23,0.726,0.161,0.114,-0.71,0.839,0.155,0.167,0.61,0,0.232,0.214,0.09,0.518,0.244,0.274,0.19,0.405,0.208,0.121,-0.54,0.839,0.161,0.179,0.05,0.482,0.161
94645,20100906,-67.88,46.96,0.136,-0.12,0.685,0.238,0.121,-0.64,0.768,0.185,0.193,0.94,0,0.31,0.221,0.14,0.518,0.286,0.278,0.21,0.405,0.28,0.128,-0.44,0.696,0.196,0.19,0.14,0.482,0.304
94645,20100907,-67.88,46.96,0.142,-0.03,0.548,0.25,0.124,-0.6,0.756,0.185,0.209,1.14,0,0.452,0.239,0.25,0.518,0.369,0.297,0.29,0.405,0.423,0.133,-0.37,0.554,0.196,0.202,0.25,0.482,0.446
94645,20100908,-67.88,46.96,0.155,0.15,0.405,0.363,0.133,-0.48,0.661,0.214,0.227,1.39,0,0.595,0.26,0.37,0.405,0.405,0.33,0.42,0.405,0.565,0.144,-0.21,0.411,0.232,0.221,0.41,0.405,0.589
94645,20100909,-67.88,46.96,0.182,0.57,0.262,0.506,0.153,-0.21,0.518,0.357,0.263,1.88,0,0.738,0.287,0.54,0.262,0.548,0.37,0.58,0.262,0.708,0.167,0.15,0.268,0.375,0.251,0.68,0.262,0.732
94645,20100910,-67.88,46.96,0.207,0.96,0.119,0.649,0.173,0.06,0.375,0.5,0.293,2.29,0,0.881,0.317,0.72,0.119,0.69,0.413,0.75,0.119,0.851,0.19,0.5,0.125,0.518,0.281,0.95,0.119,0.875
94645,20100911,-67.88,46.96,0.221,1.17,0,0.774,0.186,0.24,0.25,0.56,0.32,2.65,0,1,0.344,0.88,0,0.833,0.452,0.91,0,0.994,0.204,0.71,0,0.619,0.305,1.16,0,1
94645,20100912,-67.88,46.96,0.207,0.97,0,0.685,0.172,0.07,0.292,0.417,0.31,2.54,0,1,0.339,0.85,0,0.815,0.454,0.92,0,1,0.19,0.5,0,0.476,0.297,1.09,0,1
94645,20100913,-67.88,46.96,0.203,0.91,0,0.607,0.168,0.01,0.363,0.387,0.292,2.32,0,1,0.331,0.8,0,0.679,0.456,0.92,0,1,0.186,0.45,0,0.44,0.29,1.04,0,1
94645,20100914,-67.88,46.96,0.202,0.9,0,0.595,0.167,0.01,0.375,0.387,0.28,2.18,0,1,0.328,0.77,0,0.595,0.456,0.93,0,1,0.184,0.43,0,0.44,0.287,1,0,0.911
94645,20100915,-67.88,46.96,0.205,0.94,0,0.583,0.17,0.04,0.369,0.423,0.279,2.15,0,1,0.329,0.78,0,0.619,0.451,0.91,0,0.946,0.188,0.48,0,0.506,0.287,1,0,0.869
94645,20100916,-67.88,46.96,0.197,0.79,0,0.583,0.166,-0.03,0.369,0.369,0.271,2.01,0,1,0.329,0.78,0,0.619,0.452,0.91,0,0.946,0.181,0.37,0,0.476,0.283,0.96,0,0.869
94645,20100917,-67.88,46.96,0.184,0.58,0,0.5,0.156,-0.19,0.446,0.25,0.269,1.95,0,1,0.329,0.78,0,0.619,0.452,0.91,0,0.946,0.17,0.18,0,0.357,0.278,0.9,0,0.869
94645,20100918,-67.88,46.96,0.181,0.52,0,0.44,0.151,-0.26,0.512,0.214,0.269,1.92,0,1,0.329,0.78,0,0.619,0.453,0.91,0,0.946,0.166,0.11,0,0.286,0.277,0.88,0,0.869
94645,20100919,-67.88,46.96,0.18,0.49,0,0.387,0.151,-0.31,0.613,0.214,0.263,1.81,0,1,0.329,0.77,0,0.607,0.453,0.91,0,0.946,0.165,0.08,0.065,0.286,0.275,0.85,0,0.851
94645,20100920,-67.88,46.96,0.18,0.48,0,0.387,0.15,-0.34,0.613,0.214,0.259,1.73,0,1,0.329,0.77,0,0.601,0.453,0.91,0,0.946,0.165,0.05,0.208,0.286,0.274,0.83,0,0.708
94645,20100921,-67.88,46.96,0.18,0.46,0,0.387,0.15,-0.37,0.613,0.214,0.257,1.69,0,0.887,0.328,0.76,0,0.601,0.452,0.91,0,0.946,0.165,0.02,0.351,0.286,0.273,0.81,0,0.655
94645,20100922,-67.88,46.96,0.168,0.28,0,0.286,0.14,-0.53,0.714,0.149,0.243,1.48,0,0.744,0.317,0.69,0,0.542,0.444,0.87,0,0.875,0.154,-0.17,0.494,0.185,0.263,0.7,0,0.554
94645,20100923,-67.88,46.96,0.155,0.06,0.083,0.143,0.127,-0.72,0.857,0.06,0.218,1.14,0,0.601,0.3,0.58,0,0.399,0.424,0.78,0,0.732,0.141,-0.39,0.637,0.071,0.245,0.53,0,0.411
94645,20100924,-67.88,46.96,0.146,-0.08,0.226,0.083,0.121,-0.83,0.923,0.036,0.193,0.8,0,0.458,0.278,0.44,0.03,0.256,0.398,0.66,0,0.589,0.133,-0.53,0.78,0.048,0.227,0.36,0,0.268
94645,20100925,-67.88,46.96,0.147,-0.06,0.256,0.083,0.12,-0.84,0.929,0.048,0.178,0.58,0,0.375,0.263,0.34,0.101,0.149,0.375,0.56,0,0.488,0.134,-0.53,0.827,0.048,0.217,0.26,0,0.167
94645,20100926,-67.88,46.96,0.162,0.2,0.256,0.226,0.135,-0.66,0.786,0.19,0.191,0.69,0,0.375,0.269,0.37,0.101,0.179,0.373,0.54,0,0.488,0.149,-0.28,0.762,0.19,0.226,0.33,0,0.185
94645,20100927,-67.88,46.96,0.17,0.33,0.256,0.369,0.143,-0.56,0.696,0.232,0.213,0.9,0,0.375,0.278,0.41,0.101,0.321,0.372,0.52,0,0.488,0.157,-0.16,0.619,0.256,0.235,0.4,0,0.327
94645,20100928,-67.88,46.96,0.177,0.43,0.256,0.411,0.148,-0.51,0.667,0.256,0.238,1.15,0,0.488,0.288,0.46,0.101,0.464,0.373,0.51,0,0.488,0.162,-0.08,0.518,0.286,0.245,0.47,0,0.47
94645,20100929,-67.88,46.96,0.195,0.76,0.256,0.554,0.164,-0.3,0.524,0.399,0.271,1.48,0,0.631,0.308,0.58,0.101,0.607,0.386,0.55,0,0.613,0.18,0.21,0.375,0.429,0.265,0.63,0,0.613
94645,20100930,-67.88,46.96,0.216,1.11,0.173,0.696,0.181,-0.09,0.381,0.542,0.302,1.78,0,0.774,0.332,0.72,0.101,0.75,0.405,0.62,0,0.756,0.198,0.51,0.232,0.571,0.287,0.82,0,0.756
94645,20101001,-67.88,46.96,0.243,1.56,0.03,0.839,0.199,0.16,0.238,0.685,0.337,2.12,0,0.917,0.362,0.89,0.071,0.893,0.431,0.72,0,0.899,0.221,0.89,0.089,0.714,0.314,1.05,0,0.899
94645,20101002,-67.88,46.96,0.267,1.99,0,0.899,0.216,0.38,0.167,0.78,0.367,2.34,0,1,0.383,1.01,0,1,0.453,0.8,0,1,0.242,1.24,0.042,0.81,0.337,1.23,0,1
94645,20101003,-67.88,46.96,0.271,2.01,0,0.899,0.216,0.38,0.167,0.78,0.37,2.25,0,1,0.385,1.01,0,1,0.454,0.79,0,1,0.243,1.25,0.042,0.81,0.339,1.23,0,1
94645,20101004,-67.88,46.96,0.269,1.96,0,0.845,0.214,0.33,0.208,0.75,0.372,2.14,0,1,0.388,1,0,1,0.456,0.77,0,1,0.242,1.2,0.048,0.78,0.34,1.21,0,1
94645,20101005,-67.88,46.96,0.267,1.89,0,0.804,0.211,0.27,0.238,0.726,0.363,1.96,0,1,0.384,0.94,0,1,0.457,0.74,0,1,0.239,1.14,0.143,0.75,0.336,1.15,0,0.946
94645,20101006,-67.88,46.96,0.251,1.58,0,0.661,0.197,0.05,0.381,0.583,0.334,1.62,0,0.857,0.374,0.83,0,0.946,0.458,0.68,0,1,0.224,0.86,0.286,0.607,0.323,1,0,0.804
94645,20101007,-67.88,46.96,0.24,1.35,0,0.577,0.19,-0.08,0.47,0.494,0.315,1.35,0,0.768,0.365,0.71,0,0.845,0.458,0.62,0,1,0.215,0.68,0.369,0.518,0.314,0.87,0,0.714
94645,20101008,-67.88,46.96,0.235,1.19,0,0.577,0.19,-0.09,0.47,0.494,0.308,1.14,0,0.768,0.359,0.59,0,0.744,0.459,0.56,0,1,0.213,0.58,0.369,0.518,0.31,0.76,0,0.714
94645,20101009,-67.88,46.96,0.215,0.79,0,0.542,0.18,-0.27,0.494,0.369,0.29,0.89,0,0.768,0.352,0.48,0,0.601,0.46,0.5,0,1,0.198,0.29,0.369,0.464,0.299,0.6,0,0.673
94645,20101010,-67.88,46.96,0.198,0.47,0,0.399,0.167,-0.49,0.637,0.226,0.277,0.72,0,0.768,0.344,0.35,0,0.458,0.46,0.44,0,1,0.182,0.01,0.494,0.321,0.289,0.46,0,0.53
94645,20101011,-67.88,46.96,0.192,0.36,0.077,0.31,0.162,-0.6,0.685,0.214,0.258,0.56,0,0.637,0.333,0.22,0,0.315,0.461,0.38,0,1,0.177,-0.1,0.631,0.286,0.281,0.35,0,0.387
94645,20101012,-67.88,46.96,0.189,0.29,0.22,0.31,0.16,-0.64,0.685,0.214,0.243,0.44,0,0.494,0.328,0.13,0,0.173,0.46,0.33,0,0.97,0.175,-0.15,0.637,0.286,0.276,0.27,0,0.298
94645,20101013,-67.88,46.96,0.187,0.24,0.363,0.31,0.159,-0.69,0.685,0.214,0.239,0.41,0,0.494,0.321,0.04,0.107,0.083,0.447,0.24,0,0.827,0.173,-0.18,0.637,0.286,0.271,0.19,0.065,0.298
94645,20101014,-67.88,46.96,0.179,0.09,0.506,0.25,0.151,-0.83,0.738,0.161,0.227,0.33,0,0.44,0.307,-0.07,0.25,0.042,0.428,0.12,0.131,0.685,0.165,-0.33,0.696,0.232,0.259,0.07,0.208,0.244
94645,20101015,-67.88,46.96,0.16,-0.23,0.649,0.107,0.133,-1.12,0.881,0.018,0.199,0.18,0,0.298,0.286,-0.22,0.393,0,0.405,-0.02,0.274,0.542,0.146,-0.63,0.839,0.089,0.237,-0.11,0.351,0.101
94645,20101016,-67.88,46.96,0.157,-0.28,0.69,0.089,0.13,-1.19,0.923,0.024,0.193,0.13,0.024,0.214,0.274,-0.31,0.47,0,0.389,-0.12,0.351,0.452,0.144,-0.69,0.887,0.077,0.229,-0.19,0.411,0.054
94645,20101017,-67.88,46.96,0.167,-0.14,0.69,0.226,0.143,-1.03,0.78,0.024,0.2,0.15,0.024,0.214,0.274,-0.32,0.47,0,0.389,-0.14,0.351,0.452,0.155,-0.54,0.762,0.185,0.235,-0.16,0.411,0.131
94645,20101018,-67.88,46.96,0.172,-0.1,0.613,0.226,0.148,-0.98,0.756,0.024,0.217,0.22,0.024,0.345,0.278,-0.32,0.47,0,0.388,-0.14,0.351,0.452,0.16,-0.49,0.72,0.185,0.24,-0.14,0.411,0.131
94645,20101019,-67.88,46.96,0.174,-0.09,0.589,0.226,0.149,-0.99,0.756,0.024,0.235,0.29,0.024,0.387,0.279,-0.33,0.47,0,0.389,-0.13,0.351,0.482,0.161,-0.48,0.72,0.185,0.245,-0.12,0.411,0.131
94645,20101020,-67.88,46.96,0.175,-0.08,0.589,0.226,0.15,-1.02,0.756,0.024,0.238,0.29,0.083,0.387,0.287,-0.31,0.363,0,0.402,-0.06,0.351,0.625,0.162,-0.49,0.72,0.185,0.25,-0.11,0.345,0.131
94645,20101021,-67.88,46.96,0.176,-0.08,0.589,0.226,0.15,-1.05,0.756,0.024,0.24,0.27,0.226,0.387,0.299,-0.27,0.268,0,0.422,0.06,0.22,0.768,0.163,-0.51,0.72,0.185,0.257,-0.09,0.292,0.131
94645,20101022,-67.88,46.96,0.186,0.05,0.512,0.298,0.159,-0.95,0.69,0.024,0.254,0.32,0.298,0.429,0.315,-0.21,0.22,0,0.441,0.17,0.089,0.833,0.173,-0.39,0.649,0.244,0.271,0,0.22,0.185
94645,20101023,-67.88,46.96,0.193,0.13,0.47,0.351,0.166,-0.86,0.625,0,0.268,0.36,0.274,0.411,0.329,-0.12,0.143,0,0.458,0.31,0.012,0.923,0.18,-0.31,0.601,0.31,0.283,0.08,0.161,0.274
94645,20101024,-67.88,46.96,0.193,0.1,0.47,0.315,0.166,-0.88,0.625,0,0.267,0.34,0.274,0.286,0.334,-0.09,0.143,0.024,0.46,0.39,0.012,0.923,0.179,-0.33,0.601,0.286,0.284,0.1,0.161,0.304
94645,20101025,-67.88,46.96,0.193,0.09,0.488,0.315,0.166,-0.93,0.643,0,0.267,0.33,0.274,0.143,0.337,-0.06,0.143,0.083,0.461,0.46,0.012,0.923,0.179,-0.35,0.613,0.286,0.285,0.1,0.161,0.304
94645,20101026,-67.88,46.96,0.204,0.24,0.387,0.423,0.179,-0.74,0.536,0.054,0.279,0.38,0.274,0.185,0.34,-0.05,0.143,0.083,0.463,0.53,0.012,0.923,0.191,-0.18,0.5,0.375,0.293,0.17,0.161,0.393
94645,20101027,-67.88,46.96,0.219,0.45,0.244,0.565,0.194,-0.5,0.393,0.054,0.305,0.5,0.214,0.315,0.346,-0.01,0.143,0.083,0.464,0.59,0.012,0.923,0.206,0.04,0.357,0.518,0.306,0.29,0.161,0.536
94645,20101028,-67.88,46.96,0.239,0.74,0.101,0.708,0.211,-0.2,0.25,0.125,0.339,0.66,0.071,0.458,0.353,0.05,0.095,0.083,0.466,0.63,0.012,0.923,0.225,0.33,0.214,0.661,0.322,0.44,0.071,0.679
94645,20101029,-67.88,46.96,0.247,0.88,0.036,0.78,0.219,-0.07,0.173,0.125,0.353,0.73,0,0.554,0.361,0.13,0,0.083,0.472,0.72,0,1,0.233,0.46,0.143,0.744,0.331,0.53,0,0.768
94645,20101030,-67.88,46.96,0.247,0.88,0.036,0.78,0.219,-0.08,0.173,0.125,0.353,0.73,0,0.56,0.361,0.13,0,0.083,0.472,0.73,0,1,0.233,0.45,0.143,0.714,0.33,0.53,0,0.768
94645,20101031,-67.88,46.96,0.245,0.87,0.036,0.768,0.217,-0.12,0.208,0.125,0.354,0.74,0,0.601,0.361,0.12,0,0.06,0.473,0.74,0,1,0.231,0.42,0.167,0.696,0.33,0.53,0,0.762